Hourly Weather Baskie

Today, 19 June, Saturday

Time Temperature Precipitation Wind Pressure Humidity
00:00 +10°C° 0 mm 1 mps 731 mmHg 74%
01:00 +9°C° 0 mm 2 mps 731 mmHg 83%
02:00 +9°C° 0 mm 2 mps 731 mmHg 85%
03:00 +9°C° 0 mm 2 mps 730 mmHg 88%
04:00 +9°C° 0 mm 2 mps 730 mmHg 91%
05:00 +10°C° 0 mm 2 mps 730 mmHg 88%
06:00 +10°C° 0 mm 2 mps 730 mmHg 86%
07:00 +12°C° 0 mm 2 mps 729 mmHg 84%
08:00 +13°C° 0 mm 3 mps 729 mmHg 79%
09:00 +16°C° 0 mm 3 mps 729 mmHg 73%
10:00 +18°C° 0 mm 4 mps 728 mmHg 68%
11:00 +17°C° 0.1 mm 4 mps 728 mmHg 72%
12:00 +17°C° 0.1 mm 4 mps 728 mmHg 76%
13:00 +17°C° 0.1 mm 3 mps 727 mmHg 80%
14:00 +18°C° 0.1 mm 3 mps 727 mmHg 76%
15:00 +19°C° 0.1 mm 3 mps 726 mmHg 73%
16:00 +20°C° 0.1 mm 2 mps 726 mmHg 69%
17:00 +19°C° 0.2 mm 2 mps 725 mmHg 76%
18:00 +18°C° 0.2 mm 2 mps 725 mmHg 83%
19:00 +18°C° 0.2 mm 2 mps 724 mmHg 90%
20:00 +18°C° 0.1 mm 3 mps 724 mmHg 87%
21:00 +18°C° 0.1 mm 4 mps 723 mmHg 85%
22:00 +18°C° 0.1 mm 4 mps 723 mmHg 82%
23:00 +17°C° 0 mm 4 mps 723 mmHg 84%

Tomorrow, 20 June, Sunday

Time Temperature Precipitation Wind Pressure Humidity
00:00 +17°C° 0 mm 4 mps 723 mmHg 86%
01:00 +16°C° 0 mm 3 mps 723 mmHg 88%
02:00 +14°C° 0 mm 4 mps 723 mmHg 83%
03:00 +14°C° 0 mm 5 mps 724 mmHg 79%
04:00 +13°C° 0 mm 6 mps 724 mmHg 75%
05:00 +13°C° 0 mm 6 mps 725 mmHg 70%
06:00 +13°C° 0 mm 6 mps 725 mmHg 64%
07:00 +11°C° 0 mm 6 mps 726 mmHg 59%
08:00 +13°C° 0 mm 6 mps 727 mmHg 51%
09:00 +13°C° 0 mm 6 mps 727 mmHg 44%
10:00 +14°C° 0 mm 7 mps 728 mmHg 37%
11:00 +15°C° 0 mm 7 mps 728 mmHg 34%
12:00 +16°C° 0 mm 7 mps 728 mmHg 32%
13:00 +17°C° 0 mm 7 mps 729 mmHg 29%
14:00 +17°C° 0 mm 7 mps 729 mmHg 29%
15:00 +17°C° 0 mm 6 mps 729 mmHg 30%
16:00 +17°C° 0 mm 6 mps 730 mmHg 30%
17:00 +16°C° 0 mm 6 mps 730 mmHg 33%
18:00 +15°C° 0 mm 5 mps 730 mmHg 37%
19:00 +15°C° 0 mm 4 mps 731 mmHg 40%
20:00 +12°C° 0 mm 3 mps 731 mmHg 46%
21:00 +10°C° 0 mm 2 mps 731 mmHg 53%
22:00 +9°C° 0 mm 1 mps 732 mmHg 59%
23:00 +8°C° 0 mm 1 mps 732 mmHg 61%

Day after tomorrow, 21 June, Monday

Time Temperature Precipitation Wind Pressure Humidity
00:00 +7°C° 0 mm 1 mps 732 mmHg 64%
01:00 +7°C° 0 mm 1 mps 732 mmHg 66%
02:00 +7°C° 0 mm 1 mps 733 mmHg 66%
03:00 +7°C° 0 mm 1 mps 733 mmHg 67%
04:00 +6°C° 0 mm 1 mps 733 mmHg 67%
05:00 +8°C° 0 mm 1 mps 734 mmHg 61%
06:00 +10°C° 0 mm 1 mps 734 mmHg 55%
07:00 +13°C° 0 mm 1 mps 734 mmHg 49%
08:00 +14°C° 0 mm 1 mps 734 mmHg 44%
09:00 +16°C° 0 mm 1 mps 734 mmHg 39%
10:00 +19°C° 0 mm 1 mps 734 mmHg 34%
11:00 +20°C° 0 mm 1 mps 733 mmHg 34%
12:00 +20°C° 0 mm 2 mps 733 mmHg 33%
13:00 +23°C° 0 mm 2 mps 733 mmHg 33%
14:00 +22°C° 0 mm 3 mps 732 mmHg 34%
15:00 +24°C° 0 mm 3 mps 732 mmHg 35%
16:00 +23°C° 0 mm 4 mps 731 mmHg 36%
17:00 +22°C° 0 mm 4 mps 731 mmHg 44%
18:00 +21°C° 0 mm 3 mps 730 mmHg 51%
19:00 +20°C° 0 mm 3 mps 730 mmHg 59%
20:00 +18°C° 0.8 mm 2 mps 729 mmHg 71%
21:00 +16°C° 0.8 mm 1 mps 729 mmHg 84%
22:00 +15°C° 0.8 mm 1 mps 729 mmHg 97%
23:00 +14°C° 0 mm 1 mps 729 mmHg 97%

22 June, Tuesday

Time Temperature Precipitation Wind Pressure Humidity
00:00 +14°C° 0 mm 1 mps 729 mmHg 98%
01:00 +14°C° 0 mm 1 mps 728 mmHg 98%
02:00 +14°C° 0 mm 1 mps 728 mmHg 98%
03:00 +14°C° 0 mm 1 mps 728 mmHg 98%
04:00 +14°C° 0 mm 1 mps 728 mmHg 97%
05:00 +15°C° 0 mm 1 mps 728 mmHg 96%
06:00 +16°C° 0 mm 1 mps 728 mmHg 94%
07:00 +18°C° 0 mm 2 mps 728 mmHg 92%
08:00 +20°C° 0 mm 2 mps 728 mmHg 81%
09:00 +22°C° 0 mm 3 mps 728 mmHg 71%
10:00 +25°C° 0 mm 3 mps 729 mmHg 60%
11:00 +25°C° 0.1 mm 4 mps 729 mmHg 54%
12:00 +26°C° 0.1 mm 5 mps 729 mmHg 47%
13:00 +27°C° 0.1 mm 5 mps 729 mmHg 41%
14:00 +27°C° 0 mm 5 mps 729 mmHg 41%
15:00 +27°C° 0 mm 5 mps 729 mmHg 42%
16:00 +26°C° 0 mm 5 mps 730 mmHg 42%
17:00 +23°C° 0 mm 4 mps 730 mmHg 50%
18:00 +21°C° 0 mm 4 mps 730 mmHg 58%
19:00 +20°C° 0 mm 3 mps 731 mmHg 66%
20:00 +17°C° 0 mm 3 mps 731 mmHg 73%
21:00 +14°C° 0 mm 2 mps 731 mmHg 81%
22:00 +10°C° 0 mm 2 mps 732 mmHg 89%
23:00 +9°C° 0 mm 2 mps 732 mmHg 92%

23 June, Wednesday

Time Temperature Precipitation Wind Pressure Humidity
00:00 +9°C° 0 mm 1 mps 732 mmHg 94%
01:00 +8°C° 0 mm 1 mps 733 mmHg 96%
02:00 +8°C° 0 mm 1 mps 733 mmHg 96%
03:00 +8°C° 0 mm 1 mps 733 mmHg 95%
04:00 +8°C° 0 mm 1 mps 734 mmHg 95%
05:00 +10°C° 0 mm 1 mps 734 mmHg 84%
06:00 +12°C° 0 mm 1 mps 734 mmHg 73%
07:00 +14°C° 0 mm 1 mps 735 mmHg 62%
08:00 +16°C° 0 mm 1 mps 735 mmHg 55%
09:00 +18°C° 0 mm 1 mps 735 mmHg 48%
10:00 +20°C° 0 mm 1 mps 735 mmHg 41%
11:00 +21°C° 0 mm 1 mps 735 mmHg 39%
12:00 +22°C° 0 mm 1 mps 735 mmHg 36%
13:00 +23°C° 0 mm 1 mps 734 mmHg 33%
14:00 +23°C° 0 mm 1 mps 734 mmHg 33%
15:00 +23°C° 0 mm 2 mps 734 mmHg 32%
16:00 +24°C° 0 mm 2 mps 734 mmHg 31%
17:00 +23°C° 0 mm 2 mps 734 mmHg 38%
18:00 +21°C° 0 mm 2 mps 734 mmHg 45%
19:00 +21°C° 0 mm 1 mps 733 mmHg 52%
20:00 +19°C° 0 mm 1 mps 733 mmHg 56%
21:00 +16°C° 0 mm 1 mps 733 mmHg 61%
22:00 +14°C° 0 mm 1 mps 733 mmHg 65%
23:00 +14°C° 0 mm 1 mps 733 mmHg 66%

24 June, Thursday

Time Temperature Precipitation Wind Pressure Humidity
00:00 +13°C° 0 mm 1 mps 733 mmHg 68%
01:00 +12°C° 0 mm 1 mps 733 mmHg 69%
02:00 +11°C° 0 mm 0 mps 733 mmHg 70%
03:00 +11°C° 0 mm 0 mps 733 mmHg 71%
04:00 +11°C° 0 mm 0 mps 733 mmHg 72%
05:00 +13°C° 0 mm 0 mps 733 mmHg 66%
06:00 +16°C° 0 mm 0 mps 733 mmHg 59%
07:00 +18°C° 0 mm 0 mps 734 mmHg 53%
08:00 +20°C° 0 mm 0 mps 734 mmHg 50%
09:00 +23°C° 0 mm 1 mps 733 mmHg 47%
10:00 +25°C° 0 mm 1 mps 733 mmHg 43%
11:00 +26°C° 0 mm 1 mps 733 mmHg 43%
12:00 +26°C° 0 mm 2 mps 733 mmHg 42%
13:00 +27°C° 0 mm 3 mps 733 mmHg 41%
14:00 +27°C° 0 mm 3 mps 733 mmHg 43%
15:00 +27°C° 0 mm 3 mps 733 mmHg 44%
16:00 +27°C° 0 mm 3 mps 732 mmHg 46%
17:00 +27°C° 0 mm 2 mps 732 mmHg 53%
18:00 +26°C° 0 mm 2 mps 731 mmHg 61%
19:00 +25°C° 0 mm 1 mps 731 mmHg 69%
20:00 +23°C° 0 mm 1 mps 731 mmHg 77%
21:00 +22°C° 0 mm 1 mps 730 mmHg 84%
22:00 +20°C° 0 mm 1 mps 730 mmHg 91%
23:00 +20°C° 0.1 mm 1 mps 729 mmHg 92%
Show more